Starlink 11307

operational
NORAD ID: 61210 Int'l Des: 2024-171 Owner: SPXS Country: US Constellation: starlink
LEOCIRCULAR

Über Starlink 11307

Beschreibung wird geladen...

Live-Position

3D-Globus wird geladen...

Nächste Überflüge

Höhenverlauf

Altitude vs Time

uPlot chart will show altitude changes over time

Zweizeiliger Elementsatz

1 61210U 24171L 25258.47044115 .00001499 00000-0 17221-4 0 9993
2 61210 53.1588 320.3857 0000972 81.2507 278.8621 15.69716689 56879
Epoch: 15. Sept. 2025 • Age: 14 hours

Aktueller Status

Höhe 359.6 km
Geschwindigkeit 7.70 km/s
Subsatellitenpunkt 12.55°N, 44.79°W
Startdatum 20. Sept. 2024
Alter 0.9 years
Typ internet

Technische Details

Klassifizierung Payload
Masse 960.00 kg
Trockenmasse 910.00 kg
Gesamtmasse 960.00 kg
Länge 0.30 m
Durchmesser 4.10 m
Spannweite 29.00 m
Form Box + pan
Hersteller SPXS
Bus-Typ Starlink V2MD
Phasenstatus In Orbit
Besitzer/Staat SPXS/US

Große Konstellationen

Loading constellations...